Wind_Speed
31 31 29 28 30 33 30 26 26 26 25 24 23 22 21 18 16 14 15 17 18 18 16 15 12 9 7 7 9 10 10 10 10 7 10 21 29 30 31 31 29 27 28 29 29 28 27 24 23 23 23 22 22 21 21 20 19 20 20 20 20 21 22 23 24 24 24 24 24 23 22 21 20 20 19 18 17 17 17 17 17 17 17 17 17 17 16
34 33 33 30 28 33 33 30 29 28 26 24 23 23 23 21 18 19 21 23 21 18 16 14 12 11 10 10 10 10 9 10 11 12 13 15 18 21 24 26 27 27 29 32 31 31 28 25 24 24 23 23 22 22 21 19 20 20 20 20 21 20 21 22 23 24 24 24 24 23 23 23 23 22 21 20 19 18 18 18 17 17 17 17 17 17 17
30 29 31 28 25 32 36 34 32 30 26 24 24 22 23 24 22 23 24 23 21 17 15 13 13 13 13 12 11 11 9 10 12 14 17 18 19 21 22 24 25 25 29 33 34 33 31 28 27 26 25 23 23 23 22 21 22 22 22 23 24 23 22 22 22 22 23 23 24 24 24 24 24 22 21 21 20 20 20 19 19 18 19 19 19 19 19
25 25 29 29 27 31 34 34 34 32 28 28 27 23 22 23 24 25 24 23 22 18 15 14 14 15 15 14 13 12 10 11 12 14 17 19 21 22 22 24 25 24 26 29 32 35 34 32 30 28 26 24 23 23 23 23 23 24 24 25 26 25 25 24 24 23 23 24 24 24 24 24 24 23 22 22 22 22 21 20 20 20 20 21 21 21 20
26 28 33 32 29 29 31 34 35 33 31 32 31 26 23 24 25 26 27 26 24 20 17 15 14 15 17 17 16 14 13 13 13 13 15 17 17 18 19 21 24 25 25 27 30 34 35 34 33 31 29 27 26 25 25 25 25 24 24 24 25 26 27 28 27 27 25 24 24 24 25 25 25 24 23 23 23 23 23 23 22 22 22 22 22 22 22
25 31 37 35 31 29 30 35 38 37 34 34 33 29 27 27 27 27 29 29 27 24 20 18 16 16 18 19 17 15 15 16 16 15 16 17 17 16 17 20 23 25 27 29 32 34 34 34 35 34 33 31 28 28 29 28 25 24 23 24 26 29 30 28 27 26 25 24 24 25 26 26 26 26 25 25 25 24 25 25 25 24 23 23 23 23 23
26 29 36 37 34 30 31 34 36 37 36 32 31 32 29 29 29 30 30 30 28 26 23 21 19 18 19 19 18 16 16 18 19 18 18 19 18 15 15 17 19 22 26 30 32 32 34 35 35 34 34 33 30 29 29 28 25 25 26 27 29 31 29 26 25 26 26 25 25 25 26 26 27 27 27 26 25 26 26 27 26 26 25 25 25 24 24
29 30 33 37 36 32 32 32 27 28 32 30 28 30 29 29 30 31 32 32 31 28 25 22 21 21 20 20 19 18 18 19 21 21 21 20 19 18 18 17 17 18 22 28 31 33 35 35 33 32 32 32 31 30 28 28 29 28 28 28 29 30 28 26 26 27 28 27 27 26 26 27 28 28 28 27 25 26 27 27 26 26 26 26 26 25 25
32 34 34 36 36 33 35 35 25 22 29 31 29 29 29 30 31 32 33 34 33 31 29 27 25 24 22 20 19 19 19 20 21 22 23 23 21 20 19 18 16 16 17 19 24 29 32 31 30 32 32 31 32 31 28 27 30 29 28 28 29 31 31 30 29 30 31 30 29 27 28 30 31 30 29 28 27 27 27 27 27 27 26 26 26 25 25
36 38 38 39 39 37 37 38 32 24 27 30 31 31 30 31 32 33 33 34 34 33 33 31 29 28 26 23 21 20 19 19 20 21 22 23 22 21 20 18 16 16 15 13 15 19 23 24 25 28 29 29 28 27 23 22 24 25 25 26 27 30 34 35 34 34 33 30 28 28 28 30 33 33 32 31 30 30 29 28 28 28 28 28 27 26 26
37 40 40 40 42 42 41 41 38 30 26 28 29 31 32 33 33 34 34 34 35 35 34 32 29 28 27 25 24 23 21 20 20 20 20 20 19 17 18 19 19 17 16 16 17 18 19 19 20 22 23 23 22 21 20 19 20 22 23 23 23 25 29 33 35 36 34 31 29 29 30 32 35 37 36 35 34 33 31 31 30 30 30 30 30 30 30
36 40 40 40 41 43 43 43 41 36 30 27 27 29 32 34 34 35 35 35 35 35 34 31 29 28 26 25 25 26 24 23 22 22 21 20 19 17 16 18 20 19 18 18 20 21 22 23 24 24 24 23 22 21 21 20 21 22 22 23 23 22 22 24 28 30 30 28 25 27 30 34 39 40 38 37 37 34 33 34 33 32 31 32 33 33 33
35 38 40 40 41 42 41 40 40 38 33 29 28 28 30 33 35 36 36 36 36 35 33 32 30 30 29 27 27 27 27 25 25 24 23 22 23 23 21 20 19 20 21 20 19 20 22 24 24 24 23 22 22 21 21 20 21 22 22 23 23 22 21 21 21 23 25 24 23 24 26 29 35 40 40 38 37 36 35 36 35 33 34 35 35 35 35
32 36 38 38 37 39 39 38 39 40 37 32 30 29 29 31 33 35 36 37 37 37 36 34 32 31 30 29 29 29 28 27 27 26 26 25 25 25 25 24 22 20 21 22 20 18 20 22 24 23 21 20 21 22 22 21 20 20 20 21 22 22 22 22 22 22 23 23 23 23 23 22 23 29 33 34 34 34 36 36 35 35 34 35 36 36 35
27 32 36 35 34 33 34 34 35 37 36 34 33 32 31 30 31 32 34 35 36 37 38 38 37 35 33 32 32 31 29 27 27 28 27 27 26 25 25 27 26 24 24 25 25 25 25 26 27 27 25 23 24 26 25 23 23 22 21 22 24 25 23 23 24 23 23 23 23 22 23 23 22 22 22 23 25 28 31 33 34 34 33 34 37 38 36
23 26 29 31 32 32 32 32 31 31 32 32 31 32 32 31 30 30 30 32 34 35 36 37 37 37 36 35 35 34 31 27 25 26 27 27 27 26 25 26 26 27 28 30 32 33 32 30 30 32 32 30 29 30 30 29 28 29 28 28 29 29 28 28 28 28 27 27 27 26 26 27 26 25 24 23 22 23 27 30 31 30 29 31 35 38 37
20 21 22 23 26 29 31 32 32 32 31 30 28 28 29 29 29 28 28 29 31 33 34 35 35 35 34 34 34 35 33 29 26 25 26 26 26 25 24 23 23 23 24 26 29 32 33 33 33 33 34 32 31 31 32 31 30 31 32 32 33 32 31 30 31 31 31 30 29 29 29 28 26 25 26 26 25 23 24 27 26 24 23 24 27 30 33
16 18 19 19 20 21 24 28 31 33 33 32 29 27 26 26 27 27 27 27 28 30 31 33 33 33 32 31 32 33 33 32 29 27 27 27 27 26 25 24 23 23 22 23 25 28 31 33 33 32 31 31 31 32 32 33 33 33 33 33 34 33 33 32 32 33 32 30 29 30 31 30 29 28 27 28 28 27 27 29 28 25 25 25 23 23 26
13 14 15 16 17 17 18 20 24 27 30 32 32 29 26 25 25 25 25 26 27 28 29 30 31 32 32 31 31 31 32 32 31 30 28 28 28 29 30 30 29 29 28 27 27 28 29 31 32 32 31 31 31 33 34 35 36 36 35 35 35 34 33 32 32 33 33 31 30 32 33 32 31 31 31 31 31 31 31 32 33 33 33 31 28 26 26
13 13 14 14 15 16 16 16 18 19 22 26 29 29 27 25 24 24 24 24 24 26 26 27 28 29 30 30 30 31 32 33 33 32 31 30 29 29 31 33 33 33 31 30 30 30 31 32 33 33 34 34 35 35 35 36 37 37 37 37 36 35 34 33 32 33 33 32 32 33 35 34 32 31 31 31 32 33 33 34 34 35 35 35 34 32 30
11 12 13 14 14 14 15 16 16 16 17 19 21 24 25 25 24 23 22 22 22 23 24 24 25 26 26 27 28 29 30 32 33 33 33 33 32 30 30 31 32 33 33 31 30 30 31 32 33 34 35 36 37 37 37 37 37 37 37 37 36 36 36 35 34 33 34 33 33 34 35 35 35 34 33 32 33 34 34 33 33 33 33 34 33 32 31
10 10 11 11 12 13 14 15 15 15 16 16 17 18 21 22 23 22 22 21 21 21 21 22 23 23 24 24 25 26 27 29 31 32 32 33 33 33 32 31 30 31 33 33 33 32 32 33 33 34 35 35 36 37 38 38 38 38 37 37 37 37 37 38 37 36 36 36 36 36 37 36 36 35 36 35 35 35 35 35 35 34 34 33 33 32 30
10 10 10 10 11 11 12 13 13 14 15 15 16 16 17 19 20 21 22 22 21 21 21 21 22 22 22 22 23 24 25 26 27 29 30 32 33 34 34 33 32 31 31 32 33 34 34 33 34 34 35 36 36 37 38 39 39 39 39 39 39 38 38 39 39 40 41 41 41 41 41 40 38 37 37 37 37 37 37 37 37 37 36 35 35 33 32
10 10 10 11 11 10 10 11 11 12 13 13 14 15 15 16 18 19 21 22 22 22 22 22 22 23 22 22 22 22 23 23 24 25 27 28 30 32 34 35 35 34 33 32 33 33 34 34 34 34 35 36 37 37 38 39 40 41 41 42 41 40 40 39 39 40 42 44 45 46 46 45 44 42 41 40 39 38 38 38 38 38 38 38 37 36 35
9 9 9 10 10 10 10 10 11 12 12 12 12 13 13 14 16 17 19 21 22 23 23 23 24 24 24 24 24 24 23 23 23 24 24 25 27 28 30 33 34 36 36 35 34 34 34 35 36 36 37 38 39 40 40 39 39 40 41 42 43 43 43 42 41 41 42 44 46 48 48 48 47 46 45 44 44 43 42 41 40 40 40 39 39 39 39
9 9 9 9 10 10 11 11 12 12 11 11 12 12 12 13 14 15 16 18 20 21 22 23 23 24 25 25 26 26 26 26 26 25 25 25 26 27 28 29 31 33 35 36 37 37 37 37 38 38 39 39 41 42 42 41 40 40 41 42 43 44 44 45 44 44 43 44 45 46 48 48 48 48 47 46 46 46 45 44 43 42 41 41 41 42 42
8 7 7 8 9 10 10 10 10 10 11 11 11 11 12 12 13 14 14 15 16 18 19 20 21 22 23 24 25 26 27 27 28 28 28 28 28 28 28 29 31 32 33 34 35 36 36 36 37 38 39 41 42 43 44 44 44 43 43 44 45 45 46 46 47 47 46 46 45 46 47 48 48 48 48 47 47 46 46 45 45 44 44 44 43 44 45
6 5 6 7 8 8 8 8 8 9 9 9 10 10 10 11 13 14 14 15 16 17 18 19 20 21 22 23 24 25 26 26 27 28 28 29 29 29 30 30 32 33 33 34 35 35 36 36 36 37 38 40 41 43 45 46 47 47 46 47 48 48 49 49 49 49 49 49 48 47 48 48 48 49 49 49 49 49 48 47 47 47 46 46 46 46 47
6 5 5 6 6 6 7 7 7 8 8 7 8 8 9 10 12 13 14 15 16 17 18 19 19 20 22 23 24 25 26 27 28 28 29 29 29 29 30 30 31 32 33 35 36 37 37 38 38 38 38 39 40 41 43 44 45 45 46 47 48 50 51 51 52 52 52 52 52 51 50 50 49 49 50 51 50 50 50 50 50 49 48 48 48 48 49
5 5 5 5 6 6 7 8 8 8 8 7 8 9 9 10 11 12 13 14 16 17 18 19 20 21 22 23 24 25 26 27 28 29 30 30 30 30 30 30 30 31 32 34 35 36 37 38 38 39 40 40 40 41 42 42 43 43 44 45 46 47 49 50 51 51 52 52 52 53 53 52 51 51 51 52 52 51 51 50 50 51 51 51 51 52 53
5 5 4 5 6 7 8 8 9 9 9 9 9 11 12 12 12 14 15 16 17 18 19 21 22 23 23 24 25 25 26 27 28 29 30 31 31 31 31 30 30 30 31 32 33 34 35 36 37 39 39 40 40 40 41 41 42 43 44 45 45 46 47 48 49 50 50 51 51 52 52 52 52 52 52 52 53 54 53 53 52 53 53 54 55 56 57
6 6 6 6 7 8 9 9 10 11 12 12 12 13 13 14 15 16 18 19 20 22 23 24 25 26 27 27 28 28 28 29 30 30 31 32 32 32 32 32 31 31 31 32 32 33 34 35 36 37 38 38 39 40 40 40 41 42 43 44 45 46 47 48 49 50 50 51 51 51 51 51 51 51 51 52 52 53 54 54 54 55 55 56 58 59 59
8 8 8 9 10 10 11 11 12 13 14 15 14 14 15 16 17 18 19 20 21 23 24 25 27 28 30 31 32 32 32 33 33 33 33 33 33 34 34 33 33 33 32 32 32 33 33 34 35 36 36 37 38 39 40 40 40 41 42 43 43 44 45 46 48 49 50 51 52 52 52 52 52 51 51 52 52 52 53 53 54 55 57 58 60 61 61
8 9 10 11 11 12 13 13 14 15 16 17 17 17 17 18 19 19 20 21 22 23 24 25 27 28 30 32 34 35 36 37 37 37 37 37 37 36 36 36 35 35 34 34 34 34 34 34 34 35 35 36 37 38 39 40 40 40 41 42 43 43 44 45 46 47 48 50 51 52 53 54 54 54 54 54 54 54 55 55 55 56 58 59 61 63 63
10 12 13 14 14 15 17 17 18 18 19 20 20 20 20 21 21 22 23 24 25 26 27 27 28 29 30 31 33 35 37 38 40 40 41 41 41 40 39 39 38 38 37 37 36 36 36 36 36 36 37 37 38 38 39 39 40 41 41 42 43 44 45 45 45 46 47 48 49 50 52 53 54 55 55 56 57 57 58 58 58 58 59 60 61 62 64
14 15 16 17 16 17 19 19 20 21 22 22 22 21 21 22 23 24 26 27 28 29 29 30 30 31 31 32 33 34 35 37 39 40 42 42 42 42 42 41 41 40 40 40 39 39 39 39 39 39 39 39 40 40 40 40 41 41 42 43 44 45 45 46 46 47 48 49 49 50 51 52 52 53 55 56 58 59 60 60 60 60 61 61 62 62 64
15 16 17 18 18 19 19 20 20 21 22 22 22 21 22 23 25 27 28 29 30 31 31 32 32 33 33 34 34 35 35 35 37 39 40 42 42 43 42 42 42 42 42 42 42 42 41 41 41 41 41 41 41 41 41 41 42 42 43 45 46 46 47 47 48 49 49 50 50 51 51 51 52 52 54 56 58 59 60 61 62 62 63 63 64 64 63
16 17 18 18 19 20 20 21 21 21 22 22 21 22 23 25 27 28 29 30 31 32 32 33 33 34 35 35 36 36 36 36 36 37 39 40 41 41 41 41 41 41 41 41 41 41 41 41 41 42 42 42 42 42 43 43 43 44 45 46 47 48 49 50 50 51 51 52 53 53 53 53 53 53 54 55 57 59 60 62 63 63 63 64 64 64 63
17 18 18 19 19 20 21 22 22 23 23 23 23 24 25 27 28 28 29 30 31 32 33 33 34 35 36 36 36 36 36 36 36 36 37 38 38 38 38 38 38 38 39 39 40 40 40 41 41 42 43 43 43 44 44 44 44 45 46 47 48 49 50 50 51 51 52 52 53 54 54 55 55 54 55 56 57 58 59 60 60 60 61 61 62 62 61
18 19 20 21 22 22 23 23 24 25 25 26 26 27 28 30 30 29 29 30 31 33 34 34 35 35 36 37 37 36 36 35 35 35 36 36 36 36 36 36 36 37 38 39 39 40 41 41 42 42 43 44 44 44 45 45 46 46 47 48 48 49 50 50 50 51 51 52 52 53 54 55 55 55 56 56 57 57 58 59 59 58 58 59 60 60 61
19 20 22 24 25 26 26 26 26 26 27 28 29 30 31 32 33 33 33 33 34 35 35 35 35 36 36 36 36 36 35 34 34 34 35 35 35 35 35 36 36 37 38 39 40 40 41 42 42 43 43 43 44 44 44 45 46 46 47 47 48 48 49 49 49 50 50 51 51 52 53 53 53 53 51 50 50 51 54 56 57 58 58 59 59 60 61
21 22 24 24 25 25 25 25 26 27 28 29 30 32 34 35 36 37 37 37 37 37 37 36 36 36 36 35 35 34 33 32 32 33 34 34 35 35 36 37 37 38 39 39 40 40 41 41 42 42 43 43 43 43 43 44 44 45 46 46 47 48 48 48 49 49 50 51 51 52 52 53 53 53 52 50 49 50 50 50 51 54 58 60 62 62 63
21 21 22 22 22 23 24 25 26 27 28 29 30 32 34 36 38 39 39 39 39 39 38 36 35 35 34 33 33 32 31 31 31 32 33 33 34 35 36 37 38 38 39 39 40 40 40 40 41 41 42 42 42 42 43 43 44 44 45 45 46 47 47 48 48 49 49 50 51 52 53 53 54 55 55 54 54 55 56 54 52 51 52 54 58 61 63
20 20 21 22 24 25 26 26 27 27 28 29 30 31 32 34 36 37 38 39 39 38 37 36 34 33 33 32 31 31 31 31 31 32 33 34 35 35 36 37 38 38 39 39 39 40 40 40 40 40 41 41 42 43 43 43 44 44 44 44 45 45 45 46 46 47 47 47 48 48 49 51 52 54 55 56 56 56 58 59 59 57 54 52 53 54 55
21 22 23 24 25 26 26 27 28 28 29 30 31 32 32 33 34 36 37 37 37 37 36 34 33 32 32 31 31 31 31 32 33 33 34 35 35 36 36 37 37 38 38 39 39 39 39 40 40 40 41 41 42 42 43 43 43 43 43 43 43 43 43 44 44 44 44 44 44 44 44 45 46 48 51 54 56 57 58 60 62 63 63 61 59 57 56
23 24 24 25 26 26 27 27 28 29 30 31 32 33 33 34 34 35 35 36 36 35 34 33 32 31 31 31 31 32 32 33 34 35 35 36 37 37 37 37 37 37 38 38 39 39 39 40 40 40 41 42 42 42 42 42 42 42 42 42 42 42 42 42 43 43 43 43 43 43 43 43 44 45 47 49 51 53 55 57 59 61 62 62 62 61 61
25 25 26 26 26 27 27 28 29 30 31 33 33 33 33 34 34 34 34 35 34 34 33 32 31 31 31 31 32 33 34 34 35 36 37 37 37 37 37 38 38 38 38 39 39 39 40 40 40 41 41 42 42 43 43 42 42 42 41 41 41 41 41 42 42 43 44 44 44 44 44 44 45 46 47 48 49 50 51 53 55 57 57 57 57 57 58
27 27 27 27 27 28 29 29 30 31 32 33 34 34 34 34 34 34 34 34 33 33 32 31 30 30 31 31 32 33 34 35 35 36 37 37 37 37 37 37 37 38 38 39 39 40 40 40 41 41 42 42 43 43 42 42 41 41 41 41 40 40 40 40 41 41 41 42 42 43 43 44 46 46 47 47 48 49 49 51 53 54 55 54 54 54 55
29 28 28 28 29 29 30 30 31 32 33 34 33 33 34 34 34 34 34 33 33 32 31 30 30 31 31 32 33 33 34 34 35 36 36 36 36 36 36 36 36 37 38 39 39 40 40 40 41 41 41 42 42 41 41 40 40 39 39 39 39 38 38 38 38 38 39 39 40 41 42 42 43 43 43 44 45 47 48 50 52 53 53 53 53 52 52
29 29 29 29 30 31 31 31 32 33 33 34 33 33 34 34 33 33 33 32 32 31 30 30 30 31 31 32 32 33 33 34 34 34 35 35 35 35 35 35 36 37 38 38 39 39 40 40 40 40 40 40 40 39 39 38 38 38 37 37 36 36 36 36 36 36 37 37 38 39 39 38 38 38 39 41 42 43 44 46 48 49 50 51 51 50 50
30 30 30 31 31 32 32 32 33 33 34 34 33 33 34 34 33 33 32 31 30 30 30 30 30 31 31 31 31 32 32 33 33 33 33 34 34 34 35 35 36 37 37 37 38 38 38 38 38 37 37 36 36 36 35 35 35 35 35 35 34 34 33 33 33 34 34 35 35 35 35 35 35 35 36 35 34 34 34 35 37 39 41 42 43 44 44
31 31 31 32 32 32 32 33 33 33 33 33 33 33 33 32 32 31 31 30 30 30 30 30 30 30 30 30 31 31 31 31 32 32 32 33 33 33 34 35 35 35 35 35 35 35 35 34 34 34 33 33 33 33 32 33 33 33 32 32 31 31 30 30 31 31 32 32 32 31 32 32 33 32 31 29 27 27 27 27 28 30 31 32 33 34 35
Wind_Direction
177 178 179 182 186 187 186 179 181 189 193 194 198 202 205 211 212 213 218 218 215 213 213 209 205 213 222 216 210 206 205 209 206 192 180 190 197 202 206 211 216 217 217 217 219 221 224 225 227 227 228 229 228 226 224 222 221 221 224 226 226 226 227 228 229 229 231 233 236 239 240 242 242 244 247 248 248 249 249 249 249 246 245 243 242 243 245
171 176 178 181 185 186 182 179 185 191 195 201 205 204 206 210 213 216 217 218 219 218 220 223 223 229 232 228 227 223 214 206 201 194 184 184 194 202 206 212 217 221 223 221 220 222 225 228 228 227 227 227 227 227 227 226 222 220 219 222 226 226 226 229 231 231 232 232 234 237 238 240 241 243 246 249 252 254 254 255 257 257 257 255 252 251 251
172 178 179 180 181 181 182 183 187 190 193 201 203 202 207 211 214 220 221 221 223 223 224 228 230 233 231 226 228 228 221 207 195 197 198 194 199 207 210 213 217 222 225 224 221 220 223 227 229 226 225 224 225 226 227 227 225 223 220 220 221 220 220 225 230 233 234 233 232 233 235 237 238 241 244 248 251 253 256 259 261 261 261 259 257 254 252
185 183 179 181 180 180 186 188 187 190 195 200 197 194 205 213 215 222 224 224 226 225 222 223 228 233 233 232 232 231 229 219 206 206 206 201 202 210 215 218 219 223 226 225 224 222 221 223 226 225 224 223 224 227 228 226 225 226 226 225 223 220 218 219 223 226 229 231 232 233 234 235 235 235 237 241 245 247 248 250 253 256 257 258 258 257 255
197 188 180 184 184 184 190 190 188 191 195 197 194 192 201 211 216 223 227 227 227 225 221 219 223 228 229 231 234 233 232 230 223 220 218 215 214 215 220 225 225 226 226 226 228 227 223 223 225 226 225 224 224 225 226 225 225 226 229 232 234 233 227 222 221 222 224 227 231 233 234 234 234 233 232 234 238 242 243 243 243 245 249 253 256 258 258
204 194 185 187 186 183 189 193 193 195 195 197 200 202 207 213 218 225 230 231 231 230 226 219 217 222 225 227 231 231 227 226 227 227 230 238 241 230 225 228 228 227 226 225 227 229 226 225 226 224 224 225 224 222 221 223 227 228 228 231 237 242 242 236 231 229 230 232 233 236 238 238 237 235 233 232 234 238 242 243 242 241 242 245 249 253 255
214 204 190 190 190 185 188 194 198 200 197 198 202 206 211 216 219 224 230 233 233 232 228 219 215 221 225 226 231 232 226 223 226 229 231 239 246 241 233 232 229 226 224 223 224 222 221 225 228 225 223 225 224 221 217 221 230 234 230 229 234 240 243 243 242 240 239 239 239 239 242 245 245 243 240 236 235 237 240 243 244 244 243 242 242 245 248
218 213 201 196 197 195 194 196 198 197 193 192 198 204 210 214 216 220 225 230 234 234 230 220 215 220 225 227 231 233 233 231 231 231 230 231 236 240 242 243 238 231 225 222 221 217 216 222 227 225 224 224 223 221 220 223 231 235 234 233 236 241 241 240 241 239 238 242 246 246 245 246 247 249 249 246 244 243 245 245 245 245 245 245 245 244 245
216 216 212 207 205 206 206 207 207 195 188 190 198 205 212 216 217 219 222 228 234 238 234 227 222 223 228 231 230 229 231 234 234 233 231 230 232 237 243 245 243 239 232 222 215 213 215 222 226 226 225 225 226 229 231 230 231 235 238 238 239 243 243 240 235 232 237 246 248 244 242 243 246 249 250 251 250 250 251 250 247 245 245 247 248 248 247
214 216 218 215 213 215 216 217 219 208 192 194 201 206 213 219 222 223 225 228 234 239 239 236 233 232 232 233 232 231 232 233 233 235 236 237 237 239 242 243 238 231 226 216 207 208 214 222 226 225 223 223 226 230 231 230 230 233 237 240 241 242 244 242 237 235 241 247 242 234 233 238 245 249 249 249 249 249 251 252 251 249 249 251 254 255 253
211 213 215 215 214 217 220 223 224 219 206 204 207 210 215 219 223 227 229 230 234 239 241 241 239 237 237 236 236 238 242 242 238 237 241 244 244 241 242 243 239 232 227 223 218 215 216 219 220 218 216 216 219 221 221 226 233 236 238 241 246 248 248 246 241 239 242 245 242 239 238 237 243 249 249 248 247 247 250 251 251 250 251 254 258 259 259
209 210 212 213 213 215 219 222 225 224 220 216 215 217 218 220 224 229 233 235 237 239 241 240 238 238 240 239 238 239 243 248 247 245 246 247 244 242 244 243 239 236 237 237 231 227 227 227 226 225 224 224 224 224 224 227 233 238 241 244 248 251 250 246 241 238 239 243 246 247 246 242 241 243 246 247 246 247 250 253 253 252 253 255 258 259 259
210 210 212 214 215 217 220 222 224 226 227 227 225 224 223 224 226 230 235 239 241 242 243 242 241 242 242 242 241 239 239 245 251 251 249 247 244 244 246 243 237 236 239 239 232 226 225 227 227 228 231 231 229 230 230 229 229 235 242 247 249 249 246 242 239 236 238 243 248 251 254 250 242 238 241 244 245 245 248 252 254 256 257 258 259 261 261
212 213 212 213 215 218 221 223 225 228 231 234 234 230 227 228 230 233 236 239 242 244 246 247 249 249 246 247 250 249 247 248 252 252 251 251 248 246 243 239 235 234 232 226 220 221 229 234 233 232 232 232 234 236 233 226 226 236 247 251 248 247 248 249 248 247 249 252 253 256 263 266 252 239 236 239 241 243 247 252 255 258 259 258 257 257 257
215 217 218 217 216 217 219 221 224 227 231 234 235 233 232 233 234 235 237 238 240 242 244 247 250 251 250 250 253 256 256 255 254 253 254 252 250 247 243 240 237 234 230 228 233 244 251 249 243 239 239 242 246 248 244 235 234 243 252 253 248 246 251 256 255 255 258 257 255 258 263 267 266 260 252 246 245 246 249 253 257 260 261 257 254 252 252
216 219 223 224 225 225 224 223 224 226 229 232 234 234 235 237 237 237 238 238 239 240 242 245 248 250 250 250 251 253 254 251 249 249 249 248 248 246 245 246 246 244 242 242 248 255 258 253 246 245 249 253 256 256 255 252 250 250 253 256 256 252 252 255 255 255 256 254 254 259 264 265 268 272 271 266 260 255 253 252 253 255 257 255 253 253 250
218 219 222 225 227 229 230 230 231 232 232 233 235 236 238 239 238 238 238 238 238 239 241 243 246 248 249 249 248 248 248 245 241 238 237 239 243 243 241 242 245 248 248 245 247 251 255 254 252 251 252 255 256 255 256 256 256 255 254 256 257 256 253 252 254 256 258 258 259 261 263 264 264 264 264 263 260 256 253 249 245 246 250 253 255 255 252
224 223 223 224 225 228 231 233 234 236 236 235 235 238 240 241 240 239 239 239 240 240 241 243 244 246 247 247 246 246 246 245 243 238 233 233 236 238 238 239 242 246 250 250 246 245 248 251 254 255 255 256 255 256 257 258 259 259 258 257 257 258 257 255 253 253 255 259 261 261 259 258 255 252 251 253 253 252 250 249 248 250 254 259 264 264 258
227 226 227 226 224 225 229 233 236 237 238 237 237 239 242 244 244 241 239 240 241 242 242 243 244 246 246 247 247 246 246 246 247 246 243 239 236 237 239 242 245 249 253 256 255 252 250 250 253 256 258 259 259 258 259 260 260 261 260 260 259 259 259 258 257 255 254 255 259 260 259 257 253 250 249 250 251 253 253 254 258 263 265 268 270 269 266
228 227 227 228 227 225 226 230 234 237 239 239 239 240 242 246 249 247 244 243 244 244 245 245 246 247 247 248 249 249 248 248 249 251 251 250 247 244 242 243 247 251 254 256 257 256 255 254 255 257 260 261 263 263 262 261 261 261 261 261 261 259 258 257 255 253 253 253 255 256 256 254 252 251 251 251 251 254 257 261 265 268 270 270 270 269 267
228 228 228 230 232 232 231 231 232 234 237 238 239 239 241 244 249 250 250 249 249 248 249 249 249 249 249 250 250 251 251 251 251 252 253 255 255 255 252 249 250 252 254 255 255 256 257 257 257 257 259 260 262 263 263 263 262 262 261 261 261 260 258 255 252 251 250 248 248 250 253 254 252 250 250 251 252 255 258 262 266 268 270 270 270 269 266
227 227 227 228 230 233 236 238 238 237 237 237 237 237 238 241 246 250 253 253 253 252 252 253 253 253 252 252 253 253 253 253 253 253 254 255 257 258 259 258 255 254 255 256 257 257 257 257 258 257 257 257 259 260 262 263 264 264 263 261 260 258 256 254 252 251 249 247 245 245 249 253 255 255 255 255 257 259 260 262 264 266 268 269 269 267 265
225 225 225 226 227 229 233 236 238 239 240 240 238 237 237 240 244 249 252 254 255 255 255 255 255 255 255 254 254 254 253 253 253 254 254 256 257 258 259 261 260 258 257 256 258 259 258 258 257 257 256 256 256 256 258 260 263 264 265 264 263 260 257 254 252 250 250 249 248 248 251 254 256 257 258 259 260 262 262 262 262 263 264 265 265 263 261
222 221 221 223 224 225 228 232 236 236 237 239 240 239 237 239 242 247 250 253 255 256 257 257 258 258 258 257 256 255 254 253 252 252 252 253 254 255 257 259 260 261 260 258 256 256 257 257 258 257 257 257 256 256 256 257 260 262 263 264 265 265 262 260 257 254 252 252 251 252 254 256 258 259 258 259 260 261 261 262 262 261 261 261 261 260 258
221 219 219 221 222 222 223 228 234 236 236 237 239 239 238 237 237 241 245 249 253 255 257 258 258 258 258 258 258 257 256 255 254 254 253 251 251 252 253 254 256 257 259 259 257 256 255 256 258 259 259 258 257 256 255 256 257 260 261 262 264 265 265 264 262 260 257 256 255 256 257 258 260 260 260 259 259 259 259 260 260 260 260 259 259 259 258
223 222 222 225 225 224 223 224 230 236 240 241 244 245 245 244 241 240 242 246 250 254 257 259 260 260 259 259 259 259 259 258 256 255 253 252 251 250 251 251 252 253 254 256 257 257 256 255 255 256 257 258 258 257 256 256 257 259 261 262 263 264 264 264 264 263 261 259 258 259 260 260 261 262 261 260 259 258 258 258 258 258 258 259 258 258 258
226 223 223 228 230 230 230 228 230 234 238 242 248 252 254 256 256 253 251 251 253 256 259 261 263 265 265 265 265 264 264 263 262 260 258 256 254 252 251 250 250 251 251 252 254 256 256 255 254 254 254 255 256 256 257 258 260 262 263 264 264 264 264 265 264 264 263 262 260 260 260 260 261 262 262 261 259 257 257 257 257 257 257 257 257 256 256
231 222 219 224 227 228 232 235 238 240 242 244 248 252 256 261 263 263 262 262 261 261 261 263 264 267 268 269 270 270 269 268 267 266 265 263 261 258 256 253 252 251 251 252 253 254 255 255 255 255 254 254 254 255 256 257 260 262 263 263 263 263 263 264 264 264 264 264 263 262 260 260 259 260 260 260 260 259 257 256 256 257 258 258 257 256 255
226 217 215 223 229 232 238 245 249 252 252 253 255 257 257 260 264 267 269 269 269 268 268 267 267 267 268 270 271 272 273 273 272 271 270 268 267 264 261 259 257 255 254 253 253 253 254 254 255 256 255 254 254 254 255 256 257 258 259 260 260 261 261 263 264 264 264 264 264 263 263 262 260 259 259 259 259 259 259 259 258 258 258 258 258 257 257
235 229 225 232 243 247 251 256 261 264 266 268 268 267 265 264 266 270 272 273 274 275 275 274 273 272 271 271 271 272 273 274 274 274 273 272 271 270 268 265 263 261 259 257 256 255 254 254 255 255 256 255 255 254 254 254 255 255 256 257 258 259 260 262 263 265 265 266 265 265 264 264 263 261 260 259 258 257 256 257 257 257 257 257 258 258 258
255 256 252 249 253 256 259 264 270 273 274 274 272 273 275 277 278 278 277 277 278 279 279 279 279 277 276 275 274 272 272 272 273 273 273 273 273 272 271 269 267 265 263 262 261 259 258 257 256 256 256 257 257 257 256 256 255 255 256 256 257 257 258 260 262 264 265 266 266 267 266 266 265 264 262 261 259 257 255 254 253 254 255 256 257 259 259
264 268 268 265 264 265 267 270 272 273 274 274 273 274 277 280 281 281 282 282 283 283 284 284 284 283 282 281 280 278 276 275 274 273 273 273 272 272 271 269 268 266 265 264 263 262 261 260 260 259 259 259 260 260 260 260 259 259 258 259 259 258 258 259 260 261 263 264 265 265 266 266 266 266 265 264 262 261 259 256 254 254 254 255 256 257 257
269 269 268 266 265 266 266 266 267 268 270 272 274 275 277 278 279 281 282 282 283 283 284 284 285 285 285 284 283 282 281 279 278 276 275 274 273 273 272 271 269 267 266 264 263 262 262 262 262 262 261 261 261 262 263 263 263 262 262 262 261 261 260 260 260 260 261 261 262 263 264 264 265 265 265 264 263 262 261 259 257 255 254 254 255 255 255
276 278 278 277 276 274 273 272 271 271 272 276 280 283 285 286 287 288 287 287 286 285 284 283 282 282 282 282 282 282 282 281 280 279 278 276 275 274 273 272 271 269 267 265 264 263 263 263 263 264 265 264 264 264 264 265 265 265 265 265 264 263 262 262 261 261 261 261 261 262 262 263 263 264 264 264 264 263 262 261 259 257 256 255 255 255 255
286 286 285 285 284 282 279 278 277 277 279 282 286 289 291 293 294 294 293 293 292 291 289 287 285 283 281 281 280 280 279 279 279 279 278 277 276 275 274 273 271 270 269 268 267 266 265 265 266 267 267 268 268 267 267 268 268 268 269 268 268 267 266 265 265 264 263 262 262 262 262 263 264 264 265 265 265 265 264 264 262 261 260 259 258 257 257
288 288 288 289 290 288 284 281 279 279 280 282 284 287 291 293 294 294 294 294 293 293 292 291 290 289 288 286 284 282 280 278 277 277 277 276 276 275 273 272 270 269 269 268 268 268 268 269 269 269 270 270 269 269 270 270 270 271 271 270 270 270 269 269 268 267 266 265 264 263 263 263 263 264 265 266 266 266 266 266 265 265 264 263 262 261 260
288 289 291 293 293 291 289 287 285 282 280 281 282 284 287 290 291 292 293 294 294 294 294 293 293 293 292 292 290 288 286 282 279 277 276 275 275 274 273 271 270 269 269 269 269 269 270 271 271 271 271 270 270 271 271 271 271 272 272 272 272 272 271 271 270 269 269 268 267 266 265 264 264 264 264 263 264 264 265 265 265 265 265 265 265 265 264
291 291 293 294 293 291 290 289 287 284 283 281 281 282 284 286 288 290 293 294 295 295 294 294 294 294 294 293 292 290 288 285 282 279 277 276 275 274 273 272 270 269 268 268 269 269 270 270 271 271 271 271 271 271 271 272 272 273 273 273 273 273 273 272 272 271 270 269 269 269 268 267 265 264 263 262 262 263 263 263 263 264 264 265 265 265 265
290 291 292 294 294 293 291 288 286 284 282 281 280 280 281 283 286 290 294 296 297 296 294 294 293 294 294 293 292 290 288 286 283 280 279 278 277 275 274 272 271 270 269 269 269 269 269 269 270 271 272 272 272 271 272 272 273 274 274 274 274 274 273 273 272 271 270 269 269 269 268 267 266 265 263 263 263 263 262 262 262 263 264 265 265 266 266
293 295 297 298 297 296 293 291 288 285 282 281 280 280 280 281 283 287 292 296 298 297 295 294 293 293 293 293 291 290 289 287 284 281 279 279 278 276 275 273 272 272 271 271 270 270 270 270 271 270 271 271 271 272 272 273 274 274 275 275 275 274 274 274 273 272 271 270 269 268 267 266 266 266 265 264 264 264 264 263 263 262 263 264 265 266 266
296 296 298 298 298 296 295 292 290 287 285 283 281 280 279 280 281 283 288 294 297 298 296 294 292 292 292 291 291 290 289 287 285 282 280 279 278 278 277 275 274 273 273 272 272 272 271 271 271 270 270 271 272 273 274 274 275 275 275 275 275 275 275 275 274 274 273 272 270 269 267 266 265 264 263 263 264 265 266 266 264 262 260 261 262 263 263
296 296 297 297 296 296 294 293 292 291 289 286 283 280 279 279 280 283 285 289 293 295 295 292 291 291 291 290 289 288 288 286 284 282 281 280 280 279 279 278 277 275 274 274 273 273 273 272 272 271 272 272 273 274 275 275 276 276 275 275 275 275 275 274 274 273 273 272 271 270 268 266 264 262 260 257 255 255 258 262 263 262 260 258 257 258 260
298 297 296 296 296 296 295 294 293 292 291 289 287 284 282 281 282 283 285 287 290 292 292 290 289 289 289 288 288 287 286 285 284 283 282 281 281 280 280 279 278 277 276 276 275 274 274 273 273 273 273 274 274 275 275 276 276 276 276 276 276 275 275 275 275 274 273 272 271 269 268 266 264 262 261 258 254 251 251 253 257 260 260 258 257 258 259
299 297 295 295 295 295 295 294 293 291 291 291 290 289 288 286 285 285 285 287 288 289 289 288 288 288 287 286 286 285 285 285 285 284 283 283 282 281 280 280 279 279 278 277 276 275 274 274 273 274 274 275 276 276 277 277 277 277 277 276 276 276 276 276 276 276 275 274 273 271 270 268 266 264 262 260 258 255 252 252 253 256 258 258 258 258 260
297 296 295 293 292 292 292 291 291 290 291 292 293 292 292 290 288 287 286 286 287 287 287 286 287 287 286 285 285 285 285 285 286 286 285 285 284 283 283 282 282 281 280 278 277 276 276 275 275 275 276 276 276 277 277 278 278 278 278 277 277 277 278 278 278 277 276 274 273 273 273 272 271 269 267 264 263 261 258 256 255 256 257 258 259 260 262
298 298 296 294 292 292 291 289 289 290 291 292 293 293 292 291 289 287 287 286 286 286 285 285 286 286 286 285 285 285 285 286 287 287 287 287 287 287 287 286 285 283 282 280 279 279 279 278 278 278 278 278 278 279 279 280 280 279 278 277 277 277 277 277 276 275 274 273 273 273 273 273 273 273 272 270 268 266 264 262 260 259 259 259 260 261 262
299 299 297 295 293 292 291 290 291 292 293 293 294 293 292 290 288 287 287 286 286 285 284 285 285 285 285 286 286 286 286 287 288 288 288 288 288 288 288 287 287 285 284 283 283 282 282 282 281 281 281 281 281 281 281 281 280 279 277 275 275 275 275 275 275 274 273 273 272 272 273 273 274 275 274 273 270 268 266 263 262 260 260 260 260 261 261
299 298 296 295 294 292 292 292 293 294 294 294 294 293 291 289 288 288 287 286 286 285 285 284 284 285 285 286 287 287 288 288 288 288 288 288 288 288 288 288 287 286 285 285 285 285 284 284 283 283 282 282 282 282 281 280 279 277 275 274 274 274 274 274 274 273 273 273 273 274 274 275 276 276 276 275 273 271 267 264 261 260 259 258 258 258 258
297 297 296 295 293 293 293 294 295 295 294 294 293 292 290 289 288 288 287 286 285 285 285 285 286 287 287 288 288 289 289 288 288 288 288 288 288 289 289 289 288 287 287 287 287 286 285 285 284 284 283 282 281 281 280 279 277 275 274 273 273 273 273 273 272 271 272 273 275 276 277 277 277 277 276 276 276 274 269 265 262 261 260 259 257 257 257
295 295 295 294 293 293 294 295 295 294 294 293 293 291 291 290 289 288 286 285 285 285 286 287 288 289 289 289 289 289 289 289 289 289 289 290 290 290 290 290 290 289 289 289 288 288 287 286 286 285 284 283 282 281 279 277 275 274 273 273 273 272 272 271 270 270 272 275 277 278 278 277 276 276 277 278 278 276 272 268 264 263 262 262 260 260 260
294 294 294 293 293 293 294 295 294 293 293 293 293 292 291 290 288 287 286 285 285 286 287 288 289 289 289 289 289 289 289 289 290 290 291 291 292 293 292 292 291 291 291 291 290 289 288 288 287 286 284 283 282 280 278 276 274 273 272 272 272 271 271 269 269 271 274 277 279 279 278 277 276 277 279 282 283 281 278 274 270 267 265 263 261 261 262
294 294 293 293 294 294 294 294 294 294 294 294 293 291 289 288 287 286 286 286 287 287 288 288 288 288 289 289 289 290 290 290 290 291 292 293 294 294 294 294 294 293 293 293 293 292 291 289 288 287 285 283 282 280 278 277 275 274 272 271 271 269 268 268 269 271 275 278 279 279 278 277 276 277 279 281 283 282 280 275 270 267 265 263 261 262 262
Height
5832 5831 5831 5831 5832 5835 5840 5845 5848 5849 5850 5853 5854 5856 5858 5860 5861 5863 5864 5865 5866 5867 5869 5871 5872 5873 5873 5874 5874 5875 5875 5876 5876 5876 5876 5879 5882 5885 5889 5892 5895 5896 5898 5899 5901 5902 5904 5907 5910 5912 5914 5915 5917 5918 5919 5921 5923 5924 5925 5926 5927 5928 5929 5930 5931 5932 5933 5934 5936 5937 5939 5940 5941 5942 5943 5944 5945 5946 5946 5947 5947 5948 5949 5949 5950 5950 5951
5825 5826 5827 5830 5832 5836 5840 5843 5845 5848 5850 5851 5853 5855 5857 5858 5859 5860 5861 5863 5865 5866 5868 5870 5872 5873 5873 5873 5874 5875 5876 5876 5875 5876 5877 5879 5883 5885 5888 5891 5893 5895 5896 5898 5899 5900 5901 5904 5907 5910 5912 5914 5915 5916 5917 5918 5920 5921 5922 5923 5924 5925 5927 5928 5929 5930 5931 5932 5933 5934 5936 5937 5938 5940 5941 5942 5943 5944 5945 5945 5947 5947 5948 5948 5949 5949 5949
5822 5824 5827 5830 5833 5836 5839 5840 5843 5846 5848 5850 5852 5854 5856 5857 5858 5859 5860 5862 5864 5866 5867 5869 5871 5872 5872 5873 5873 5874 5875 5876 5876 5876 5876 5878 5881 5884 5886 5888 5890 5892 5893 5895 5897 5898 5899 5901 5903 5906 5909 5911 5913 5914 5916 5916 5917 5917 5918 5919 5920 5921 5923 5924 5926 5927 5929 5930 5931 5931 5932 5934 5935 5937 5939 5940 5941 5942 5943 5944 5945 5946 5946 5946 5947 5947 5947
5821 5824 5826 5829 5833 5836 5838 5840 5842 5844 5846 5848 5850 5852 5854 5855 5857 5858 5859 5861 5862 5864 5866 5867 5869 5870 5871 5872 5873 5874 5875 5876 5877 5877 5877 5877 5879 5881 5884 5886 5888 5889 5890 5892 5893 5895 5897 5898 5901 5903 5905 5908 5910 5911 5912 5913 5914 5915 5916 5916 5916 5917 5919 5919 5921 5922 5924 5926 5928 5928 5929 5930 5932 5934 5936 5937 5937 5938 5940 5941 5942 5942 5943 5943 5944 5944 5945
5820 5823 5825 5828 5832 5835 5837 5839 5841 5842 5844 5847 5848 5850 5851 5853 5855 5856 5858 5859 5860 5862 5864 5866 5867 5868 5869 5870 5872 5873 5875 5875 5876 5877 5878 5878 5878 5880 5882 5884 5886 5887 5888 5889 5891 5892 5894 5896 5899 5901 5902 5903 5905 5906 5908 5909 5910 5912 5914 5914 5915 5915 5916 5916 5916 5918 5920 5922 5924 5925 5926 5927 5928 5930 5932 5933 5934 5935 5936 5937 5938 5938 5939 5940 5941 5941 5942
5819 5821 5824 5827 5831 5834 5835 5837 5838 5839 5840 5843 5846 5848 5849 5851 5853 5854 5855 5856 5858 5860 5862 5864 5865 5866 5867 5868 5869 5871 5873 5874 5874 5874 5875 5876 5877 5879 5880 5881 5882 5884 5884 5886 5888 5890 5891 5893 5895 5897 5898 5899 5900 5902 5904 5906 5908 5910 5912 5913 5914 5914 5915 5916 5916 5917 5919 5920 5921 5922 5923 5924 5925 5926 5928 5929 5930 5931 5932 5932 5934 5935 5936 5936 5937 5938 5939
5819 5820 5824 5827 5829 5831 5833 5834 5835 5836 5838 5840 5843 5845 5847 5849 5851 5852 5852 5853 5855 5858 5860 5862 5864 5865 5866 5866 5867 5869 5870 5872 5872 5872 5872 5873 5875 5877 5878 5878 5878 5879 5880 5881 5884 5886 5888 5889 5891 5893 5894 5896 5897 5899 5902 5905 5906 5908 5910 5911 5912 5913 5914 5915 5916 5917 5917 5918 5919 5919 5920 5922 5923 5923 5923 5925 5927 5928 5928 5928 5930 5931 5932 5933 5933 5934 5935
5818 5819 5823 5825 5827 5829 5831 5832 5834 5836 5837 5839 5841 5842 5844 5846 5848 5849 5850 5851 5852 5854 5857 5860 5862 5864 5865 5865 5865 5867 5868 5869 5870 5871 5871 5871 5872 5874 5875 5875 5875 5876 5876 5878 5880 5883 5885 5886 5888 5889 5891 5893 5895 5897 5899 5901 5903 5903 5904 5906 5908 5909 5910 5912 5912 5912 5913 5914 5915 5916 5917 5918 5919 5920 5920 5922 5924 5924 5924 5925 5926 5927 5928 5929 5930 5930 5931
5816 5818 5821 5823 5826 5827 5828 5830 5833 5836 5837 5837 5839 5840 5841 5843 5845 5846 5847 5848 5849 5850 5853 5856 5859 5862 5863 5864 5864 5865 5866 5867 5868 5869 5869 5869 5870 5872 5872 5873 5874 5874 5874 5875 5877 5879 5882 5884 5885 5886 5888 5891 5893 5894 5895 5896 5898 5899 5900 5901 5903 5904 5905 5906 5906 5907 5908 5909 5911 5912 5912 5913 5915 5916 5917 5918 5919 5920 5921 5921 5922 5922 5923 5924 5926 5926 5927
5814 5817 5819 5822 5824 5825 5826 5828 5831 5834 5836 5836 5837 5839 5840 5840 5841 5843 5844 5846 5847 5848 5850 5853 5856 5858 5860 5862 5862 5863 5864 5865 5866 5867 5867 5868 5869 5870 5871 5872 5873 5873 5874 5874 5875 5877 5879 5881 5882 5883 5884 5887 5889 5890 5892 5893 5894 5895 5896 5897 5899 5900 5900 5901 5902 5904 5905 5906 5907 5908 5908 5909 5911 5912 5913 5913 5913 5914 5916 5917 5918 5919 5919 5920 5921 5922 5923
5812 5814 5817 5820 5822 5823 5825 5826 5828 5832 5834 5835 5836 5837 5838 5838 5839 5840 5841 5843 5845 5846 5849 5851 5853 5854 5857 5859 5861 5862 5862 5863 5864 5865 5866 5866 5868 5869 5870 5870 5871 5872 5873 5873 5874 5876 5877 5879 5879 5880 5881 5883 5885 5886 5889 5890 5891 5892 5892 5894 5896 5896 5896 5896 5898 5900 5902 5904 5905 5905 5906 5907 5908 5907 5908 5908 5908 5908 5910 5911 5913 5914 5916 5917 5917 5918 5919
5810 5812 5815 5818 5820 5821 5823 5825 5827 5830 5832 5833 5834 5835 5835 5837 5838 5838 5839 5841 5842 5845 5848 5850 5851 5852 5854 5856 5859 5860 5861 5861 5862 5863 5864 5865 5867 5868 5869 5869 5870 5871 5872 5872 5873 5874 5876 5876 5877 5878 5879 5880 5882 5883 5885 5888 5889 5889 5890 5891 5892 5893 5893 5893 5894 5896 5898 5900 5901 5902 5902 5903 5904 5904 5904 5903 5903 5905 5906 5907 5908 5909 5911 5912 5912 5913 5914
5808 5811 5814 5816 5818 5820 5821 5823 5825 5828 5829 5830 5831 5832 5833 5835 5836 5837 5838 5839 5840 5842 5845 5847 5849 5850 5852 5854 5856 5857 5858 5859 5859 5860 5862 5863 5865 5866 5868 5868 5869 5870 5870 5870 5871 5873 5874 5874 5875 5875 5876 5878 5879 5880 5882 5885 5886 5887 5888 5889 5890 5891 5891 5891 5892 5893 5894 5895 5896 5897 5897 5897 5898 5899 5899 5899 5899 5901 5903 5904 5904 5905 5907 5907 5908 5909 5910
5807 5809 5811 5814 5816 5818 5819 5820 5823 5825 5826 5827 5828 5829 5831 5833 5834 5836 5837 5837 5838 5839 5841 5843 5846 5848 5850 5852 5853 5854 5856 5857 5857 5857 5858 5860 5862 5863 5865 5866 5867 5869 5869 5869 5869 5871 5872 5873 5873 5873 5874 5875 5876 5876 5879 5882 5883 5884 5885 5886 5887 5888 5887 5887 5888 5890 5891 5892 5893 5893 5893 5893 5893 5893 5894 5895 5896 5897 5898 5899 5899 5900 5902 5903 5904 5905 5906
5806 5808 5809 5812 5814 5815 5817 5819 5821 5822 5824 5824 5825 5827 5830 5831 5833 5834 5835 5835 5836 5837 5838 5840 5842 5844 5847 5849 5850 5852 5853 5854 5855 5855 5856 5856 5858 5860 5861 5863 5865 5867 5868 5868 5868 5869 5870 5871 5872 5872 5873 5874 5873 5873 5875 5878 5880 5880 5882 5882 5883 5883 5884 5884 5885 5886 5888 5889 5889 5889 5889 5889 5889 5889 5891 5892 5893 5894 5894 5895 5895 5896 5897 5898 5898 5899 5901
5805 5807 5808 5810 5812 5813 5815 5817 5818 5820 5821 5822 5824 5826 5828 5829 5830 5831 5832 5833 5833 5834 5836 5837 5839 5841 5843 5845 5847 5849 5850 5852 5853 5854 5854 5854 5854 5856 5857 5859 5860 5863 5865 5866 5866 5866 5866 5867 5868 5869 5870 5871 5871 5871 5872 5874 5875 5877 5878 5879 5879 5880 5881 5881 5881 5882 5883 5884 5884 5885 5886 5885 5886 5886 5887 5888 5890 5891 5891 5892 5892 5892 5892 5893 5893 5893 5895
5803 5805 5807 5808 5810 5811 5812 5814 5816 5817 5819 5820 5822 5824 5825 5826 5827 5828 5829 5830 5831 5832 5833 5834 5836 5837 5839 5841 5843 5845 5846 5848 5851 5852 5853 5853 5853 5853 5854 5855 5856 5858 5861 5862 5863 5863 5862 5863 5864 5865 5866 5867 5868 5868 5868 5869 5871 5873 5875 5876 5876 5877 5878 5878 5878 5878 5878 5879 5880 5881 5882 5882 5883 5884 5884 5885 5886 5887 5888 5888 5888 5887 5887 5888 5889 5889 5889
5802 5803 5805 5806 5807 5808 5810 5811 5813 5814 5816 5817 5820 5821 5822 5823 5824 5826 5827 5828 5829 5830 5831 5832 5833 5834 5836 5837 5839 5841 5842 5844 5846 5849 5850 5851 5851 5851 5851 5852 5853 5855 5857 5858 5859 5860 5860 5860 5860 5861 5862 5864 5865 5865 5865 5865 5867 5869 5870 5872 5873 5873 5874 5875 5875 5874 5874 5874 5876 5877 5877 5877 5879 5880 5880 5881 5882 5883 5884 5884 5883 5883 5883 5884 5885 5885 5884
5800 5801 5803 5804 5805 5806 5807 5809 5810 5811 5812 5814 5817 5819 5820 5820 5821 5823 5824 5825 5826 5827 5829 5829 5830 5831 5832 5834 5836 5837 5838 5840 5842 5843 5845 5847 5848 5849 5849 5849 5850 5851 5853 5854 5855 5856 5857 5857 5857 5858 5859 5860 5861 5862 5862 5862 5862 5863 5865 5866 5868 5869 5870 5871 5871 5870 5870 5871 5872 5872 5872 5872 5873 5874 5876 5877 5877 5878 5879 5879 5878 5878 5879 5880 5881 5881 5881
5798 5800 5801 5801 5802 5804 5805 5806 5807 5808 5809 5811 5813 5816 5817 5817 5818 5819 5821 5822 5823 5824 5826 5826 5827 5828 5829 5831 5832 5833 5834 5836 5837 5838 5839 5841 5843 5844 5845 5846 5847 5848 5848 5849 5850 5851 5852 5852 5853 5854 5854 5855 5855 5856 5857 5858 5858 5859 5859 5861 5862 5864 5865 5865 5865 5866 5866 5867 5868 5868 5867 5867 5868 5869 5870 5871 5872 5873 5873 5874 5874 5874 5874 5875 5876 5877 5877
5796 5798 5799 5799 5800 5801 5802 5803 5804 5805 5806 5808 5810 5812 5814 5815 5815 5815 5817 5819 5820 5821 5822 5823 5824 5825 5826 5827 5828 5829 5831 5832 5833 5834 5835 5836 5837 5838 5840 5842 5843 5843 5844 5844 5845 5846 5846 5847 5848 5849 5849 5850 5850 5851 5851 5852 5853 5853 5854 5855 5857 5858 5859 5860 5860 5861 5862 5862 5863 5863 5862 5862 5863 5864 5865 5866 5867 5867 5868 5868 5869 5869 5869 5870 5870 5871 5872
5794 5795 5797 5798 5798 5799 5800 5801 5802 5803 5804 5805 5807 5808 5810 5811 5812 5813 5814 5815 5817 5818 5819 5820 5821 5822 5823 5824 5825 5826 5827 5828 5829 5830 5831 5832 5833 5833 5834 5836 5838 5838 5838 5839 5840 5841 5842 5842 5843 5843 5844 5845 5845 5846 5846 5846 5847 5847 5848 5849 5851 5853 5854 5854 5855 5856 5856 5857 5857 5857 5857 5857 5858 5859 5859 5860 5861 5862 5862 5862 5863 5864 5864 5864 5865 5865 5867
5792 5793 5794 5796 5796 5797 5798 5798 5799 5800 5801 5802 5804 5805 5807 5808 5809 5810 5811 5812 5813 5814 5815 5816 5817 5818 5820 5821 5822 5823 5824 5825 5826 5827 5827 5828 5829 5829 5830 5831 5832 5832 5833 5834 5835 5835 5836 5837 5837 5838 5839 5840 5840 5841 5841 5841 5841 5841 5842 5843 5845 5846 5848 5848 5849 5850 5850 5851 5851 5852 5852 5852 5852 5853 5853 5854 5855 5855 5856 5857 5857 5858 5859 5859 5859 5860 5861
5790 5791 5792 5793 5794 5795 5796 5796 5797 5798 5798 5799 5800 5802 5803 5805 5806 5807 5808 5809 5809 5810 5811 5812 5813 5814 5815 5817 5818 5819 5820 5821 5822 5823 5824 5824 5824 5825 5826 5827 5827 5827 5828 5829 5829 5830 5830 5831 5831 5832 5833 5834 5835 5836 5836 5837 5837 5837 5837 5837 5838 5839 5840 5841 5842 5843 5844 5844 5845 5845 5846 5846 5847 5847 5848 5848 5848 5849 5850 5851 5851 5852 5852 5853 5854 5855 5855
5789 5790 5791 5791 5793 5794 5795 5795 5795 5795 5796 5797 5798 5799 5800 5802 5803 5804 5804 5805 5806 5806 5807 5808 5809 5810 5811 5812 5813 5814 5816 5817 5818 5819 5820 5820 5820 5821 5822 5822 5822 5822 5823 5823 5824 5824 5825 5826 5826 5826 5827 5827 5828 5829 5830 5831 5831 5832 5832 5832 5833 5833 5833 5834 5835 5836 5837 5837 5838 5838 5839 5840 5840 5841 5842 5842 5842 5843 5843 5844 5845 5846 5846 5847 5848 5849 5849
5787 5788 5789 5790 5790 5791 5792 5793 5793 5794 5794 5795 5795 5796 5797 5798 5799 5801 5801 5802 5803 5803 5804 5804 5805 5805 5806 5807 5808 5809 5810 5812 5813 5814 5815 5816 5816 5817 5818 5818 5818 5818 5818 5819 5819 5819 5820 5820 5820 5821 5821 5821 5821 5822 5823 5824 5825 5826 5826 5827 5827 5827 5827 5827 5828 5829 5830 5831 5832 5832 5832 5833 5833 5834 5835 5836 5836 5836 5837 5837 5838 5839 5840 5841 5842 5843 5843
5785 5786 5787 5787 5788 5789 5790 5791 5792 5792 5793 5793 5794 5794 5795 5795 5796 5797 5798 5799 5800 5800 5801 5801 5801 5801 5802 5803 5803 5804 5805 5806 5807 5808 5810 5811 5812 5813 5813 5814 5814 5814 5814 5815 5815 5815 5815 5815 5815 5815 5816 5816 5816 5816 5817 5817 5818 5819 5820 5820 5820 5821 5821 5820 5821 5821 5822 5823 5825 5826 5826 5826 5827 5827 5828 5828 5829 5830 5830 5831 5831 5832 5834 5835 5836 5836 5837
5783 5784 5785 5785 5786 5787 5787 5788 5789 5790 5790 5791 5792 5792 5793 5793 5793 5794 5795 5796 5796 5797 5797 5798 5798 5798 5799 5799 5799 5799 5800 5801 5802 5802 5803 5804 5806 5807 5808 5808 5808 5809 5809 5810 5810 5810 5810 5810 5810 5810 5810 5811 5811 5811 5811 5812 5812 5813 5813 5813 5813 5814 5814 5814 5813 5814 5814 5815 5817 5818 5819 5819 5820 5821 5821 5821 5822 5823 5823 5824 5825 5826 5826 5827 5828 5829 5830
5782 5783 5784 5784 5784 5785 5785 5786 5787 5787 5788 5789 5789 5790 5790 5790 5790 5791 5791 5792 5792 5793 5793 5794 5794 5795 5795 5795 5795 5795 5795 5795 5796 5796 5797 5798 5799 5800 5801 5802 5802 5803 5804 5804 5804 5804 5805 5805 5805 5805 5804 5805 5806 5806 5806 5806 5806 5806 5807 5807 5807 5807 5808 5807 5806 5806 5807 5808 5808 5809 5810 5812 5813 5813 5813 5814 5814 5815 5816 5817 5818 5819 5819 5820 5821 5821 5822
5780 5781 5782 5782 5783 5783 5784 5784 5784 5785 5785 5786 5787 5787 5787 5788 5788 5788 5789 5789 5789 5789 5789 5789 5790 5791 5791 5791 5791 5792 5791 5791 5791 5791 5792 5792 5793 5794 5794 5795 5796 5797 5797 5797 5797 5798 5798 5799 5799 5798 5798 5798 5799 5800 5799 5800 5800 5801 5800 5800 5800 5801 5801 5800 5800 5800 5800 5800 5800 5801 5802 5803 5804 5805 5806 5806 5807 5807 5808 5809 5810 5811 5812 5812 5813 5813 5814
5779 5779 5780 5781 5781 5781 5782 5782 5782 5782 5783 5784 5784 5784 5784 5785 5785 5785 5786 5786 5786 5786 5786 5786 5786 5786 5786 5787 5787 5788 5788 5787 5787 5787 5787 5787 5787 5788 5788 5789 5789 5790 5790 5790 5791 5791 5791 5792 5792 5792 5792 5792 5793 5793 5793 5793 5794 5794 5794 5793 5794 5795 5795 5794 5793 5793 5793 5793 5793 5793 5794 5794 5795 5796 5797 5798 5798 5799 5800 5801 5802 5803 5804 5804 5804 5804 5805
5777 5777 5778 5778 5779 5779 5779 5780 5780 5780 5780 5781 5781 5782 5782 5782 5782 5782 5782 5782 5783 5783 5782 5782 5782 5781 5781 5782 5782 5783 5783 5783 5783 5782 5782 5782 5782 5782 5783 5783 5784 5784 5784 5784 5784 5784 5784 5784 5784 5785 5785 5786 5786 5786 5786 5786 5787 5787 5787 5787 5787 5788 5788 5787 5787 5786 5786 5786 5786 5786 5787 5787 5787 5787 5788 5788 5789 5790 5791 5793 5794 5795 5795 5796 5796 5796 5796
5775 5775 5776 5776 5776 5777 5777 5777 5778 5778 5778 5778 5778 5779 5779 5780 5780 5780 5780 5780 5779 5779 5779 5779 5778 5778 5777 5777 5777 5777 5777 5777 5777 5777 5777 5777 5777 5777 5777 5777 5778 5778 5778 5778 5778 5778 5777 5777 5777 5778 5779 5779 5779 5779 5779 5779 5779 5780 5780 5780 5780 5780 5780 5780 5779 5779 5779 5779 5779 5780 5780 5780 5779 5779 5779 5779 5779 5780 5782 5784 5785 5786 5786 5787 5787 5787 5788
5773 5773 5774 5774 5774 5774 5775 5775 5775 5775 5775 5775 5775 5776 5776 5776 5776 5776 5776 5776 5776 5776 5776 5775 5775 5774 5773 5772 5772 5771 5771 5771 5771 5771 5771 5771 5771 5771 5770 5770 5771 5771 5771 5772 5772 5771 5771 5771 5771 5771 5772 5772 5772 5772 5772 5772 5772 5772 5772 5773 5773 5773 5772 5772 5772 5772 5772 5772 5773 5773 5773 5772 5771 5771 5771 5771 5771 5771 5771 5773 5775 5776 5776 5777 5778 5778 5779
5771 5771 5771 5771 5772 5772 5772 5772 5772 5772 5772 5772 5772 5772 5772 5772 5772 5772 5772 5771 5771 5771 5771 5770 5770 5769 5769 5768 5767 5766 5766 5765 5765 5764 5764 5764 5764 5764 5764 5764 5763 5763 5764 5764 5764 5764 5765 5765 5765 5765 5765 5765 5765 5764 5764 5764 5764 5765 5765 5764 5764 5764 5764 5764 5764 5765 5765 5765 5765 5765 5765 5765 5764 5764 5763 5763 5762 5761 5761 5763 5764 5765 5766 5767 5767 5768 5769
5769 5769 5768 5769 5769 5769 5769 5769 5769 5768 5768 5768 5769 5769 5769 5769 5768 5768 5767 5767 5766 5766 5765 5765 5764 5763 5763 5762 5761 5761 5760 5759 5759 5758 5757 5757 5757 5757 5757 5757 5756 5756 5756 5756 5756 5756 5757 5757 5757 5758 5757 5757 5757 5756 5756 5756 5757 5756 5756 5755 5755 5755 5755 5756 5756 5756 5756 5756 5756 5757 5757 5757 5757 5757 5756 5755 5753 5752 5752 5753 5755 5755 5756 5756 5757 5757 5758
5767 5766 5766 5766 5766 5766 5765 5765 5765 5765 5765 5765 5765 5765 5765 5765 5764 5763 5763 5762 5762 5761 5760 5759 5758 5757 5757 5756 5755 5754 5753 5753 5752 5752 5751 5750 5750 5749 5749 5749 5749 5749 5748 5748 5748 5749 5749 5749 5749 5749 5749 5749 5749 5749 5749 5748 5748 5748 5747 5746 5746 5746 5747 5747 5747 5747 5746 5746 5746 5747 5747 5748 5749 5749 5748 5746 5744 5744 5743 5744 5745 5746 5746 5746 5746 5747 5748
5764 5763 5763 5763 5763 5763 5762 5762 5762 5762 5762 5762 5761 5761 5761 5760 5760 5759 5758 5758 5757 5756 5755 5754 5753 5751 5750 5749 5748 5748 5747 5746 5746 5745 5744 5743 5743 5742 5742 5742 5742 5742 5741 5741 5741 5741 5742 5741 5741 5740 5740 5740 5740 5740 5740 5740 5740 5739 5738 5737 5737 5738 5738 5738 5738 5738 5737 5737 5737 5737 5737 5738 5738 5739 5738 5737 5735 5735 5734 5735 5735 5736 5736 5736 5736 5737 5738
5761 5760 5760 5760 5760 5760 5759 5759 5759 5758 5758 5758 5758 5757 5757 5756 5755 5754 5754 5753 5752 5751 5750 5748 5747 5746 5745 5743 5742 5741 5740 5740 5739 5738 5737 5737 5736 5736 5735 5735 5735 5735 5735 5734 5734 5734 5734 5734 5734 5733 5733 5732 5732 5732 5732 5731 5731 5730 5729 5728 5728 5728 5728 5728 5729 5728 5728 5727 5727 5727 5727 5727 5728 5729 5728 5728 5727 5726 5725 5725 5725 5726 5726 5727 5727 5728 5728
5758 5757 5757 5757 5756 5756 5756 5755 5754 5754 5754 5754 5753 5753 5752 5751 5750 5750 5749 5748 5747 5746 5744 5743 5742 5740 5739 5738 5736 5735 5734 5733 5733 5732 5731 5730 5730 5729 5729 5729 5729 5729 5728 5728 5727 5727 5727 5727 5727 5726 5725 5724 5724 5724 5723 5723 5723 5722 5721 5720 5719 5719 5718 5719 5719 5719 5719 5719 5718 5718 5717 5717 5718 5718 5719 5719 5718 5718 5716 5716 5716 5716 5717 5717 5718 5718 5718
5755 5754 5754 5753 5752 5752 5751 5751 5750 5750 5750 5749 5749 5748 5747 5746 5746 5745 5744 5743 5742 5741 5739 5738 5736 5735 5733 5732 5730 5729 5728 5727 5726 5726 5725 5725 5724 5724 5723 5723 5723 5722 5721 5721 5720 5720 5720 5719 5719 5718 5718 5717 5716 5716 5715 5715 5714 5714 5713 5712 5711 5711 5710 5710 5710 5710 5710 5710 5709 5708 5708 5708 5708 5708 5710 5711 5711 5709 5708 5707 5707 5708 5708 5709 5709 5709 5709
5751 5751 5750 5750 5749 5748 5747 5747 5746 5745 5745 5745 5744 5743 5742 5741 5740 5740 5739 5738 5737 5736 5734 5732 5731 5729 5728 5726 5725 5723 5722 5721 5720 5720 5719 5719 5718 5718 5717 5717 5716 5715 5714 5714 5713 5713 5712 5712 5711 5711 5710 5710 5709 5708 5707 5707 5706 5705 5705 5704 5703 5703 5702 5702 5702 5701 5701 5701 5700 5699 5700 5699 5699 5699 5701 5703 5702 5700 5699 5699 5699 5699 5699 5700 5700 5700 5699
5748 5747 5747 5746 5745 5744 5744 5743 5742 5741 5741 5740 5739 5738 5737 5736 5735 5734 5734 5733 5732 5730 5729 5727 5726 5724 5722 5721 5719 5718 5717 5716 5715 5714 5714 5713 5713 5712 5711 5710 5709 5709 5708 5707 5707 5706 5705 5704 5704 5703 5702 5702 5701 5700 5699 5699 5698 5698 5697 5696 5695 5695 5694 5694 5693 5693 5692 5692 5691 5691 5691 5690 5690 5690 5692 5692 5692 5691 5691 5691 5691 5690 5690 5690 5690 5690 5690
5745 5744 5743 5742 5741 5740 5740 5739 5738 5737 5736 5735 5734 5733 5733 5732 5731 5729 5728 5727 5726 5725 5723 5722 5720 5719 5717 5716 5714 5713 5712 5711 5710 5709 5708 5707 5707 5706 5705 5704 5703 5702 5701 5700 5699 5699 5698 5697 5696 5696 5695 5694 5693 5692 5692 5691 5690 5690 5689 5688 5688 5687 5686 5685 5685 5684 5684 5683 5683 5682 5682 5682 5681 5681 5682 5682 5682 5682 5682 5682 5682 5681 5681 5681 5682 5682 5683
5741 5740 5739 5738 5737 5736 5735 5734 5733 5732 5731 5731 5730 5729 5728 5726 5725 5724 5723 5722 5721 5719 5718 5716 5715 5714 5712 5711 5709 5708 5707 5706 5705 5703 5702 5701 5700 5700 5699 5698 5696 5695 5694 5693 5692 5691 5691 5690 5689 5688 5687 5686 5685 5685 5684 5683 5682 5682 5681 5680 5680 5679 5678 5677 5677 5676 5676 5675 5675 5674 5674 5674 5673 5673 5672 5672 5672 5672 5672 5672 5672 5671 5672 5672 5673 5674 5675
5737 5736 5735 5734 5733 5732 5731 5730 5729 5728 5727 5726 5725 5724 5722 5721 5720 5719 5718 5716 5715 5714 5712 5711 5710 5708 5707 5705 5704 5703 5702 5701 5699 5698 5696 5694 5693 5692 5692 5691 5689 5688 5686 5685 5685 5684 5683 5682 5681 5680 5679 5678 5677 5676 5676 5675 5674 5674 5673 5672 5672 5671 5670 5669 5669 5668 5668 5668 5667 5667 5667 5666 5665 5665 5664 5663 5663 5662 5662 5662 5662 5662 5663 5664 5665 5665 5666
5733 5732 5730 5729 5728 5727 5726 5725 5724 5723 5722 5721 5720 5718 5717 5716 5714 5713 5712 5711 5709 5708 5707 5706 5704 5703 5702 5700 5699 5698 5696 5695 5694 5692 5690 5688 5687 5686 5684 5683 5682 5680 5679 5678 5677 5676 5675 5674 5673 5672 5671 5670 5669 5668 5667 5667 5666 5666 5665 5665 5664 5664 5663 5662 5662 5661 5661 5660 5660 5659 5659 5658 5657 5656 5655 5655 5654 5654 5653 5652 5651 5652 5653 5654 5655 5656 5656
5728 5727 5726 5725 5724 5723 5721 5720 5719 5718 5717 5716 5714 5713 5712 5710 5709 5708 5706 5705 5704 5702 5701 5700 5699 5698 5696 5695 5694 5692 5690 5689 5688 5686 5684 5683 5681 5680 5678 5677 5675 5673 5672 5671 5670 5669 5668 5667 5666 5665 5664 5662 5661 5660 5660 5659 5658 5657 5657 5657 5657 5656 5656 5655 5655 5654 5653 5653 5652 5652 5651 5650 5648 5647 5646 5646 5645 5645 5644 5642 5641 5641 5642 5644 5645 5646 5646
5723 5722 5721 5720 5719 5718 5717 5716 5715 5713 5712 5710 5709 5708 5706 5705 5704 5702 5701 5700 5698 5697 5696 5695 5693 5692 5691 5689 5688 5686 5684 5683 5682 5680 5678 5677 5675 5674 5672 5670 5668 5666 5665 5665 5664 5662 5661 5660 5658 5657 5656 5655 5654 5653 5652 5651 5650 5650 5649 5649 5649 5649 5648 5648 5648 5647 5647 5646 5645 5645 5644 5642 5641 5640 5639 5637 5636 5635 5634 5633 5633 5632 5633 5634 5635 5637 5637
5718 5718 5716 5715 5714 5713 5712 5711 5709 5708 5706 5705 5704 5702 5701 5699 5698 5697 5696 5694 5693 5692 5691 5689 5688 5686 5685 5684 5682 5681 5679 5678 5676 5674 5673 5671 5669 5668 5667 5665 5663 5660 5659 5658 5657 5655 5654 5652 5651 5650 5648 5647 5646 5645 5645 5644 5643 5642 5642 5642 5642 5642 5641 5641 5641 5641 5640 5640 5639 5638 5636 5635 5634 5633 5632 5630 5628 5627 5626 5625 5625 5625 5625 5626 5627 5629 5630
5713 5712 5711 5710 5709 5708 5707 5705 5704 5702 5701 5699 5698 5697 5695 5694 5693 5691 5690 5689 5688 5687 5685 5684 5683 5681 5680 5678 5677 5675 5674 5672 5671 5669 5667 5665 5664 5662 5661 5659 5657 5655 5653 5652 5650 5649 5647 5646 5644 5643 5641 5640 5639 5638 5637 5637 5636 5636 5635 5635 5635 5635 5635 5635 5635 5635 5634 5633 5632 5631 5630 5629 5628 5626 5625 5623 5622 5621 5620 5619 5618 5618 5618 5619 5620 5622 5623
5708 5707 5706 5705 5704 5702 5701 5700 5698 5697 5696 5694 5693 5691 5690 5689 5687 5686 5685 5684 5683 5681 5680 5679 5678 5676 5675 5673 5671 5670 5668 5667 5666 5664 5662 5660 5658 5656 5654 5653 5651 5649 5647 5645 5644 5642 5641 5639 5638 5637 5635 5634 5633 5632 5631 5630 5630 5629 5629 5629 5629 5629 5629 5629 5629 5629 5628 5627 5626 5625 5624 5623 5622 5621 5619 5618 5617 5616 5615 5614 5613 5613 5613 5613 5615 5616 5617